This demonstration page uses our WeatherBlox Daily Observations layout. Learn more.

Left ArrowRight Arrow

Hourly Observations for September 4, 2020

Temp ( °F °C ) Dew Point ( °F °C ) Humidity (%) Winds ( mph kmh ) Pressure ( in mb ) Visibility ( mi km ) Precip ( " mm )
12:59 am 00:59 Partly Cloudy 85 29.4 71 21.7 63 63 SW 9 15 29.84 1010 10 16 0.00 0.00
1:59 am 01:59 Partly Cloudy 85 29.4 71 21.7 63 63 WSW 8 13 29.85 1011 10 16 0.00 0.00
2:59 am 02:59 Partly Cloudy 84 28.9 72 22.2 67 67 W 10 17 29.85 1011 9 14 0.00 0.00
3:59 am 03:59 Partly Cloudy 82 27.8 73 22.8 74 74 W 12 19 29.88 1012 9 14 0.00 0.00
4:59 am 04:59 Mostly Clear 81 27.2 72 22.2 74 74 WNW 10 17 29.89 1012 10 16 0.00 0.00
5:59 am 05:59 Mostly Clear 81 27.2 73 22.8 77 77 WNW 10 17 29.91 1013 9 14 0.00 0.00
6:59 am 06:59 Mostly Sunny 80 26.7 73 22.8 79 79 NW 5 7 29.92 1013 8 13 0.00 0.00
7:59 am 07:59 Mostly Sunny 82 27.8 73 22.8 74 74 WNW 8 13 29.93 1014 9 14 0.00 0.00
8:59 am 08:59 Mostly Sunny 85 29.4 71 21.7 63 63 NNW 3 6 29.95 1014 10 16 0.00 0.00
9:59 am 09:59 Mostly Sunny 84 28.9 73 22.8 70 70 WSW 7 11 29.96 1015 9 14 0.00 0.00
10:59 am 10:59 Partly Cloudy 87 30.6 71 21.7 59 59 WSW 6 9 29.98 1015 10 16 0.00 0.00
11:59 am 11:59 Partly Cloudy 88 31.1 69 20.6 54 54 W 6 9 29.98 1015 10 16 0.00 0.00
12:59 pm 12:59 Partly Cloudy 89 31.7 67 19.4 48 48 NW 5 7 29.98 1015 10 16 0.00 0.00
1:59 pm 13:59 Partly Cloudy 90 32.2 66 18.9 45 45 VRB 5 7 29.97 1015 10 16 0.00 0.00
2:59 pm 14:59 Partly Cloudy 91 32.8 65 18.3 42 42 WNW 5 7 29.96 1014 10 16 0.00 0.00
3:59 pm 15:59 Partly Cloudy 91 32.8 69 20.6 49 49 SSW 6 9 29.95 1014 10 16 0.00 0.00
4:59 pm 16:59 Partly Cloudy 91 32.8 67 19.4 45 45 VRB 5 7 29.94 1014 10 16 0.00 0.00
5:59 pm 17:59 Partly Cloudy 89 31.7 68 20 50 50 ENE 8 13 29.95 1014 10 16 0.00 0.00
6:59 pm 18:59 Partly Cloudy 87 30.6 69 20.6 55 55 SSE 9 15 29.96 1014 10 16 0.00 0.00
7:59 pm 19:59 Partly Cloudy 84 28.9 70 21.1 63 63 SSE 5 7 29.98 1015 10 16 0.00 0.00
8:59 pm 20:59 Partly Cloudy 82 27.8 68 20 63 63 S 7 11 30.00 1016 10 16 0.00 0.00
9:59 pm 21:59 Partly Cloudy 81 27.2 67 19.4 62 62 SSW 6 9 30.02 1017 10 16 0.00 0.00
10:59 pm 22:59 Partly Cloudy 81 27.2 69 20.6 67 67 Calm 30.04 1017 10 16 0.00 0.00
11:59 pm 23:59 Partly Cloudy 80 26.7 71 21.7 74 74 NNE 5 7 30.06 1018 10 16 0.00 0.00

Powered by AerisWeather